Time,TemperatureF,DewpointF,PressureIn,WindDirection,WindDirectionDegrees,WindSpeedMPH,WindSpeedGustMPH,Humidity,HourlyPrecipIn,Conditions,Clouds,dailyrainin,SoftwareType,DateUTC
2014-03-03 00:01:00,33.1,23.3,30.18,NW,315,2.7,4.7,67,0.00,,,0.00,WUHU216HW,2014-03-03 07:01:00,
2014-03-03 00:06:00,33.1,23.3,30.17,North,0,0.4,4.7,67,0.00,,,0.00,WUHU216HW,2014-03-03 07:06:00,
2014-03-03 00:11:00,32.9,23.1,30.18,NNW,338,2.5,3.4,67,0.00,,,0.00,WUHU216HW,2014-03-03 07:11:00,
2014-03-03 00:16:00,32.8,23.3,30.17,NNW,338,2.7,3.6,68,0.00,,,0.00,WUHU216HW,2014-03-03 07:16:00,
2014-03-03 00:21:00,32.4,23.1,30.17,NW,315,2.0,3.6,68,0.00,,,0.00,WUHU216HW,2014-03-03 07:21:00,
2014-03-03 00:26:00,32.4,23.4,30.17,NW,315,3.1,4.0,69,0.00,,,0.00,WUHU216HW,2014-03-03 07:26:00,
2014-03-03 00:31:00,32.2,23.2,30.17,WNW,293,0.4,4.0,69,0.00,,,0.00,WUHU216HW,2014-03-03 07:31:00,
2014-03-03 00:36:00,32.2,23.6,30.17,WNW,293,2.0,3.1,70,0.00,,,0.00,WUHU216HW,2014-03-03 07:36:00,
2014-03-03 00:41:00,32.2,23.6,30.18,NW,315,3.4,3.8,70,0.00,,,0.00,WUHU216HW,2014-03-03 07:41:00,
2014-03-03 00:46:00,32.0,23.0,30.18,WNW,293,2.5,3.8,69,0.00,,,0.00,WUHU216HW,2014-03-03 07:46:00,
2014-03-03 00:51:00,32.0,23.0,30.18,WNW,293,3.1,3.8,69,0.00,,,0.00,WUHU216HW,2014-03-03 07:51:00,
2014-03-03 00:56:00,31.9,23.2,30.18,NW,315,3.1,3.8,70,0.00,,,0.00,WUHU216HW,2014-03-03 07:56:00,
2014-03-03 01:01:00,31.7,23.0,30.18,NW,315,5.1,5.1,70,0.00,,,0.00,WUHU216HW,2014-03-03 08:01:00,
2014-03-03 01:06:00,31.7,23.4,30.18,West,270,4.7,5.4,71,0.00,,,0.00,WUHU216HW,2014-03-03 08:06:00,
2014-03-03 01:11:00,31.7,23.7,30.18,WNW,293,4.0,5.4,72,0.00,,,0.00,WUHU216HW,2014-03-03 08:11:00,
2014-03-03 01:16:00,31.9,23.9,30.18,NW,315,1.8,5.4,72,0.00,,,0.00,WUHU216HW,2014-03-03 08:16:00,
2014-03-03 01:21:00,31.9,23.9,30.18,NW,315,2.7,4.7,72,0.00,,,0.00,WUHU216HW,2014-03-03 08:21:00,
2014-03-03 01:26:00,31.7,23.7,30.18,NNW,338,1.1,3.4,72,0.00,,,0.00,WUHU216HW,2014-03-03 08:26:00,
2014-03-03 01:31:00,31.5,23.2,30.18,NW,315,2.5,2.7,71,0.00,,,0.00,WUHU216HW,2014-03-03 08:31:00,
2014-03-03 01:36:00,31.3,23.1,30.18,WNW,293,2.5,3.8,71,0.00,,,0.00,WUHU216HW,2014-03-03 08:36:00,
2014-03-03 01:41:00,31.1,23.1,30.18,WNW,293,2.5,3.8,72,0.00,,,0.00,WUHU216HW,2014-03-03 08:41:00,
2014-03-03 01:46:00,31.1,23.5,30.18,West,270,2.5,3.4,73,0.00,,,0.00,WUHU216HW,2014-03-03 08:46:00,
2014-03-03 01:51:00,31.3,23.7,30.18,NNW,338,2.5,3.4,73,0.00,,,0.00,WUHU216HW,2014-03-03 08:51:00,
2014-03-03 01:56:00,31.5,24.1,30.18,NW,315,3.6,3.6,74,0.00,,,0.00,WUHU216HW,2014-03-03 08:56:00,
2014-03-03 02:01:00,31.7,24.3,30.18,WNW,293,3.1,3.6,74,0.00,,,0.00,WUHU216HW,2014-03-03 09:01:00,
2014-03-03 02:06:00,32.0,24.7,30.18,WNW,293,2.9,3.6,74,0.00,,,0.00,WUHU216HW,2014-03-03 09:06:00,
2014-03-03 02:11:00,32.0,24.7,30.18,WNW,293,2.2,3.6,74,0.00,,,0.00,WUHU216HW,2014-03-03 09:11:00,
2014-03-03 02:16:00,32.2,24.6,30.18,West,270,2.9,4.0,73,0.00,,,0.00,WUHU216HW,2014-03-03 09:16:00,
2014-03-03 02:21:00,32.2,24.8,30.18,WNW,293,4.3,4.3,74,0.00,,,0.00,WUHU216HW,2014-03-03 09:21:00,
2014-03-03 02:26:00,32.2,24.8,30.18,North,0,1.1,4.7,74,0.00,,,0.00,WUHU216HW,2014-03-03 09:26:00,
2014-03-03 02:31:00,32.2,24.8,30.18,North,0,1.8,4.7,74,0.00,,,0.00,WUHU216HW,2014-03-03 09:31:00,
2014-03-03 02:36:00,32.2,24.8,30.18,NW,315,1.1,2.2,74,0.00,,,0.00,WUHU216HW,2014-03-03 09:36:00,
2014-03-03 02:41:00,32.0,24.7,30.18,WNW,293,2.2,3.1,74,0.00,,,0.00,WUHU216HW,2014-03-03 09:41:00,
2014-03-03 02:46:00,32.2,25.2,30.18,NW,315,3.4,4.0,75,0.00,,,0.00,WUHU216HW,2014-03-03 09:46:00,
2014-03-03 02:51:00,32.4,25.4,30.18,WNW,293,1.6,4.0,75,0.00,,,0.00,WUHU216HW,2014-03-03 09:51:00,
2014-03-03 02:56:00,32.8,25.7,30.17,West,270,2.5,3.6,75,0.00,,,0.00,WUHU216HW,2014-03-03 09:56:00,
2014-03-03 03:01:00,32.8,25.7,30.17,NW,315,1.6,3.4,75,0.00,,,0.00,WUHU216HW,2014-03-03 10:01:00,
2014-03-03 03:06:00,32.9,25.8,30.17,WNW,293,1.6,3.4,75,0.00,,,0.00,WUHU216HW,2014-03-03 10:06:00,
2014-03-03 03:11:00,32.9,25.8,30.17,West,270,0.0,2.7,75,0.00,,,0.00,WUHU216HW,2014-03-03 10:11:00,
2014-03-03 03:16:00,32.9,25.5,30.17,West,270,0.0,1.6,74,0.00,,,0.00,WUHU216HW,2014-03-03 10:16:00,
2014-03-03 03:21:00,32.9,25.5,30.17,East,90,1.1,1.6,74,0.00,,,0.00,WUHU216HW,2014-03-03 10:21:00,
2014-03-03 03:26:00,32.9,25.5,30.17,NNW,338,0.0,1.6,74,0.00,,,0.00,WUHU216HW,2014-03-03 10:26:00,
2014-03-03 03:31:00,32.8,25.4,30.17,WNW,293,0.4,1.1,74,0.00,,,0.00,WUHU216HW,2014-03-03 10:31:00,
2014-03-03 03:36:00,32.8,25.4,30.17,NW,315,0.4,0.9,74,0.00,,,0.00,WUHU216HW,2014-03-03 10:36:00,
2014-03-03 03:41:00,32.8,25.4,30.17,NNW,338,0.0,0.9,74,0.00,,,0.00,WUHU216HW,2014-03-03 10:41:00,
2014-03-03 03:46:00,32.9,25.8,30.17,NW,315,0.2,0.4,75,0.00,,,0.00,WUHU216HW,2014-03-03 10:46:00,
2014-03-03 03:51:00,32.9,25.8,30.17,NNW,338,0.0,0.4,75,0.00,,,0.00,WUHU216HW,2014-03-03 10:51:00,
2014-03-03 03:56:00,32.9,25.8,30.17,NW,315,0.0,0.7,75,0.00,,,0.00,WUHU216HW,2014-03-03 10:56:00,
2014-03-03 04:01:00,33.1,26.0,30.17,NW,315,0.4,0.7,75,0.00,,,0.00,WUHU216HW,2014-03-03 11:01:00,
2014-03-03 04:06:00,33.1,26.0,30.17,WNW,293,0.7,0.7,75,0.00,,,0.00,WUHU216HW,2014-03-03 11:06:00,
2014-03-03 04:11:00,33.1,26.0,30.17,WNW,293,0.9,1.6,75,0.00,,,0.00,WUHU216HW,2014-03-03 11:11:00,
2014-03-03 04:16:00,33.1,26.0,30.17,WSW,248,0.4,1.6,75,0.00,,,0.00,WUHU216HW,2014-03-03 11:16:00,
2014-03-03 04:21:00,33.1,25.7,30.17,WNW,293,0.9,1.1,74,0.00,,,0.00,WUHU216HW,2014-03-03 11:21:00,
2014-03-03 04:26:00,32.9,25.5,30.17,West,270,0.0,1.3,74,0.00,,,0.00,WUHU216HW,2014-03-03 11:26:00,
2014-03-03 04:31:00,32.8,25.4,30.17,NNW,338,0.2,1.3,74,0.00,,,0.00,WUHU216HW,2014-03-03 11:31:00,
2014-03-03 04:36:00,32.8,25.4,30.17,NNW,338,0.2,0.7,74,0.00,,,0.00,WUHU216HW,2014-03-03 11:36:00,
2014-03-03 04:41:00,32.6,25.2,30.17,NNW,338,1.3,1.3,74,0.00,,,0.00,WUHU216HW,2014-03-03 11:41:00,
2014-03-03 04:46:00,32.4,25.0,30.17,NW,315,1.6,1.8,74,0.00,,,0.00,WUHU216HW,2014-03-03 11:46:00,
2014-03-03 04:51:00,32.0,25.0,30.17,NW,315,0.7,2.2,75,0.00,,,0.00,WUHU216HW,2014-03-03 11:51:00,
2014-03-03 04:57:00,32.0,25.0,30.17,NW,315,1.8,2.2,75,0.00,,,0.00,WUHU216HW,2014-03-03 11:57:00,
2014-03-03 05:01:00,32.0,25.4,30.17,WNW,293,2.7,3.4,76,0.00,,,0.00,WUHU216HW,2014-03-03 12:01:00,
2014-03-03 05:06:00,32.0,25.4,30.17,WNW,293,1.1,3.4,76,0.00,,,0.00,WUHU216HW,2014-03-03 12:06:00,
2014-03-03 05:12:00,31.9,25.2,30.17,WNW,293,2.0,2.9,76,0.00,,,0.00,WUHU216HW,2014-03-03 12:12:00,
2014-03-03 05:17:00,31.7,25.0,30.18,West,270,0.4,2.5,76,0.00,,,0.00,WUHU216HW,2014-03-03 12:17:00,
2014-03-03 05:22:00,31.7,25.0,30.18,West,270,0.9,2.0,76,0.00,,,0.00,WUHU216HW,2014-03-03 12:22:00,
2014-03-03 05:27:00,31.5,24.9,30.18,WNW,293,1.6,2.0,76,0.00,,,0.00,WUHU216HW,2014-03-03 12:27:00,
2014-03-03 05:32:00,31.3,24.7,30.18,NW,315,1.6,2.0,76,0.00,,,0.00,WUHU216HW,2014-03-03 12:32:00,
2014-03-03 05:37:00,31.3,24.7,30.18,NW,315,0.0,2.5,76,0.00,,,0.00,WUHU216HW,2014-03-03 12:37:00,
2014-03-03 05:42:00,31.1,24.5,30.18,NW,315,0.7,2.5,76,0.00,,,0.00,WUHU216HW,2014-03-03 12:42:00,
2014-03-03 05:47:00,30.8,24.1,30.18,NW,315,2.5,2.5,76,0.00,,,0.00,WUHU216HW,2014-03-03 12:47:00,
2014-03-03 05:52:00,30.6,24.0,30.18,NW,315,2.2,2.5,76,0.00,,,0.00,WUHU216HW,2014-03-03 12:52:00,
2014-03-03 05:57:00,30.4,23.8,30.18,NW,315,2.0,2.5,76,0.00,,,0.00,WUHU216HW,2014-03-03 12:57:00,
2014-03-03 06:02:00,30.4,23.8,30.18,NW,315,2.9,2.9,76,0.00,,,0.00,WUHU216HW,2014-03-03 13:02:00,
2014-03-03 06:07:00,30.2,23.9,30.18,NW,315,0.2,3.4,77,0.00,,,0.00,WUHU216HW,2014-03-03 13:07:00,
2014-03-03 06:12:00,30.2,23.9,30.18,NNW,338,0.2,3.4,77,0.00,,,0.00,WUHU216HW,2014-03-03 13:12:00,
2014-03-03 06:17:00,30.1,23.7,30.18,NW,315,0.4,0.7,77,0.00,,,0.00,WUHU216HW,2014-03-03 13:17:00,
2014-03-03 06:18:00,30.1,23.7,30.18,NW,315,0.9,1.1,77,0.00,,,0.00,WUHU216HW,2014-03-03 13:18:00,
2014-03-03 06:23:00,30.1,23.7,30.18,WNW,293,0.7,1.1,77,0.00,,,0.00,WUHU216HW,2014-03-03 13:23:00,
2014-03-03 06:28:00,29.9,23.5,30.18,NNW,338,0.4,1.8,77,0.00,,,0.00,WUHU216HW,2014-03-03 13:28:00,
2014-03-03 06:33:00,29.9,23.2,30.19,North,0,0.0,1.8,76,0.00,,,0.00,WUHU216HW,2014-03-03 13:33:00,
2014-03-03 06:38:00,29.7,23.1,30.19,WNW,293,0.0,0.9,76,0.00,,,0.00,WUHU216HW,2014-03-03 13:38:00,
2014-03-03 06:43:00,29.3,22.7,30.18,NW,315,1.8,1.8,76,0.00,,,0.00,WUHU216HW,2014-03-03 13:43:00,
2014-03-03 06:48:00,29.2,22.5,30.19,NW,315,1.1,1.8,76,0.00,,,0.00,WUHU216HW,2014-03-03 13:48:00,
2014-03-03 06:53:00,29.3,23.0,30.19,WNW,293,2.5,2.5,77,0.00,,,0.00,WUHU216HW,2014-03-03 13:53:00,
2014-03-03 06:58:00,29.7,23.3,30.19,WNW,293,1.8,2.5,77,0.00,,,0.00,WUHU216HW,2014-03-03 13:58:00,
2014-03-03 07:03:00,30.1,24.0,30.19,WNW,293,1.8,2.5,78,0.00,,,0.00,WUHU216HW,2014-03-03 14:03:00,
2014-03-03 07:08:00,30.6,24.6,30.19,WNW,293,3.1,3.4,78,0.00,,,0.00,WUHU216HW,2014-03-03 14:08:00,
2014-03-03 07:13:00,31.3,25.3,30.19,West,270,0.4,3.4,78,0.00,,,0.00,WUHU216HW,2014-03-03 14:13:00,
2014-03-03 07:18:00,32.0,26.0,30.20,NW,315,1.3,3.1,78,0.00,,,0.00,WUHU216HW,2014-03-03 14:18:00,
2014-03-03 07:23:00,32.6,26.5,30.20,NW,315,1.1,1.8,78,0.00,,,0.00,WUHU216HW,2014-03-03 14:23:00,
2014-03-03 07:28:00,32.8,26.3,30.19,NW,315,1.1,2.5,77,0.00,,,0.00,WUHU216HW,2014-03-03 14:28:00,
2014-03-03 07:33:00,32.8,26.6,30.19,NW,315,2.0,2.5,78,0.00,,,0.00,WUHU216HW,2014-03-03 14:33:00,
2014-03-03 07:38:00,32.9,26.8,30.19,NW,315,1.3,2.9,78,0.00,,,0.00,WUHU216HW,2014-03-03 14:38:00,
2014-03-03 07:43:00,33.5,27.3,30.19,NW,315,2.9,2.9,78,0.00,,,0.00,WUHU216HW,2014-03-03 14:43:00,
2014-03-03 07:48:00,33.8,27.6,30.20,NW,315,0.4,2.9,78,0.00,,,0.00,WUHU216HW,2014-03-03 14:48:00,
2014-03-03 07:53:00,34.6,27.7,30.20,WNW,293,0.0,2.9,76,0.00,,,0.00,WUHU216HW,2014-03-03 14:53:00,
2014-03-03 07:58:00,35.6,28.8,30.20,WNW,293,0.7,0.7,76,0.00,,,0.00,WUHU216HW,2014-03-03 14:58:00,
2014-03-03 08:03:00,36.4,29.5,30.20,NW,315,2.5,2.5,76,0.00,,,0.00,WUHU216HW,2014-03-03 15:03:00,
2014-03-03 08:08:00,37.6,31.1,30.20,West,270,0.2,2.5,77,0.00,,,0.00,WUHU216HW,2014-03-03 15:08:00,
2014-03-03 08:13:00,38.9,32.0,30.20,West,270,0.4,2.5,76,0.00,,,0.00,WUHU216HW,2014-03-03 15:13:00,
2014-03-03 08:18:00,40.1,31.8,30.20,WNW,293,0.4,1.1,72,0.00,,,0.00,WUHU216HW,2014-03-03 15:18:00,
2014-03-03 08:23:00,41.0,30.9,30.20,NW,315,0.0,0.9,67,0.00,,,0.00,WUHU216HW,2014-03-03 15:23:00,
2014-03-03 08:28:00,42.1,32.0,30.20,SE,135,0.4,0.7,67,0.00,,,0.00,WUHU216HW,2014-03-03 15:28:00,
2014-03-03 08:33:00,43.0,31.7,30.20,SSE,158,0.9,2.0,64,0.00,,,0.00,WUHU216HW,2014-03-03 15:33:00,
2014-03-03 08:38:00,43.4,31.6,30.20,ESE,113,1.6,2.5,63,0.00,,,0.00,WUHU216HW,2014-03-03 15:38:00,
2014-03-03 08:43:00,43.6,31.4,30.20,SSE,158,0.2,2.7,62,0.00,,,0.00,WUHU216HW,2014-03-03 15:43:00,
2014-03-03 08:48:00,44.1,31.1,30.20,SE,135,2.7,2.7,60,0.00,,,0.00,WUHU216HW,2014-03-03 15:48:00,
2014-03-03 08:53:00,44.6,31.2,30.20,SE,135,0.2,2.7,59,0.00,,,0.00,WUHU216HW,2014-03-03 15:53:00,
2014-03-03 08:58:00,44.6,30.3,30.20,ENE,68,1.3,2.7,57,0.00,,,0.00,WUHU216HW,2014-03-03 15:58:00,
2014-03-03 09:03:00,44.8,30.1,30.20,SE,135,0.0,2.2,56,0.00,,,0.00,WUHU216HW,2014-03-03 16:03:00,
2014-03-03 09:08:00,45.0,30.7,30.20,WSW,248,0.9,1.3,57,0.00,,,0.00,WUHU216HW,2014-03-03 16:08:00,
2014-03-03 09:13:00,46.1,31.1,30.20,ENE,68,0.2,2.9,56,0.00,,,0.00,WUHU216HW,2014-03-03 16:13:00,
2014-03-03 09:18:00,46.6,31.2,30.20,SE,135,2.7,3.4,55,0.00,,,0.00,WUHU216HW,2014-03-03 16:18:00,
2014-03-03 09:23:00,47.0,31.6,30.19,East,90,0.7,3.4,55,0.00,,,0.00,WUHU216HW,2014-03-03 16:23:00,
2014-03-03 09:28:00,47.2,31.3,30.19,ENE,68,0.9,3.1,54,0.00,,,0.00,WUHU216HW,2014-03-03 16:28:00,
2014-03-03 09:33:00,47.9,31.5,30.19,ESE,113,3.4,3.4,53,0.00,,,0.00,WUHU216HW,2014-03-03 16:33:00,
2014-03-03 09:38:00,48.6,31.2,30.19,South,180,0.2,4.0,51,0.00,,,0.00,WUHU216HW,2014-03-03 16:38:00,
2014-03-03 09:43:00,49.3,31.5,30.19,SE,135,2.2,4.0,50,0.00,,,0.00,WUHU216HW,2014-03-03 16:43:00,
2014-03-03 09:48:00,49.5,31.2,30.19,East,90,0.4,2.7,49,0.00,,,0.00,WUHU216HW,2014-03-03 16:48:00,
2014-03-03 09:53:00,49.3,31.0,30.18,South,180,1.8,2.7,49,0.00,,,0.00,WUHU216HW,2014-03-03 16:53:00,
2014-03-03 09:58:00,49.7,30.8,30.18,ESE,113,0.2,2.9,48,0.00,,,0.00,WUHU216HW,2014-03-03 16:58:00,
2014-03-03 10:03:00,49.3,30.4,30.18,East,90,0.4,2.9,48,0.00,,,0.00,WUHU216HW,2014-03-03 17:03:00,
2014-03-03 10:08:00,49.3,31.0,30.18,SSW,203,0.2,3.4,49,0.00,,,0.00,WUHU216HW,2014-03-03 17:08:00,
2014-03-03 10:13:00,49.3,31.5,30.18,East,90,2.9,3.4,50,0.00,,,0.00,WUHU216HW,2014-03-03 17:13:00,
2014-03-03 10:18:00,49.5,31.7,30.18,NE,45,0.4,4.3,50,0.00,,,0.00,WUHU216HW,2014-03-03 17:18:00,
2014-03-03 10:23:00,49.5,31.7,30.18,SE,135,3.4,4.3,50,0.00,,,0.00,WUHU216HW,2014-03-03 17:23:00,
2014-03-03 10:28:00,49.9,32.0,30.18,ENE,68,2.5,4.3,50,0.00,,,0.00,WUHU216HW,2014-03-03 17:28:00,
2014-03-03 10:33:00,49.7,31.9,30.19,NE,45,2.9,4.9,50,0.00,,,0.00,WUHU216HW,2014-03-03 17:33:00,
2014-03-03 10:38:00,49.5,31.7,30.18,North,0,3.1,4.9,50,0.00,,,0.00,WUHU216HW,2014-03-03 17:38:00,
2014-03-03 10:43:00,49.5,31.7,30.19,WNW,293,3.4,4.7,50,0.00,,,0.00,WUHU216HW,2014-03-03 17:43:00,
2014-03-03 10:48:00,49.7,31.9,30.19,NNW,338,1.3,3.6,50,0.00,,,0.00,WUHU216HW,2014-03-03 17:48:00,
2014-03-03 10:53:00,49.7,31.9,30.18,ENE,68,0.4,3.6,50,0.00,,,0.00,WUHU216HW,2014-03-03 17:53:00,
2014-03-03 10:58:00,49.5,31.7,30.18,SE,135,0.4,3.1,50,0.00,,,0.00,WUHU216HW,2014-03-03 17:58:00,
2014-03-03 11:03:00,50.0,32.2,30.18,NE,45,0.2,1.3,50,0.00,,,0.00,WUHU216HW,2014-03-03 18:03:00,
2014-03-03 11:08:00,50.2,31.9,30.18,South,180,1.8,2.2,49,0.00,,,0.00,WUHU216HW,2014-03-03 18:08:00,
2014-03-03 11:13:00,50.8,31.8,30.18,SE,135,2.5,2.5,48,0.00,,,0.00,WUHU216HW,2014-03-03 18:13:00,
2014-03-03 11:18:00,50.9,31.3,30.18,SE,135,1.1,2.5,47,0.00,,,0.00,WUHU216HW,2014-03-03 18:18:00,
2014-03-03 11:23:00,51.1,31.5,30.18,SE,135,1.1,2.5,47,0.00,,,0.00,WUHU216HW,2014-03-03 18:23:00,
2014-03-03 11:28:00,51.5,30.7,30.18,West,270,0.0,2.2,45,0.00,,,0.00,WUHU216HW,2014-03-03 18:28:00,
2014-03-03 11:33:00,51.3,30.0,30.17,SE,135,0.0,1.8,44,0.00,,,0.00,WUHU216HW,2014-03-03 18:33:00,
2014-03-03 11:38:00,52.2,30.8,30.17,ESE,113,2.2,2.7,44,0.00,,,0.00,WUHU216HW,2014-03-03 18:38:00,
2014-03-03 11:43:00,52.6,31.1,30.17,ESE,113,2.5,4.7,44,0.00,,,0.00,WUHU216HW,2014-03-03 18:43:00,
2014-03-03 11:48:00,52.2,29.7,30.17,ESE,113,1.8,4.7,42,0.00,,,0.00,WUHU216HW,2014-03-03 18:48:00,
2014-03-03 11:53:00,52.6,30.6,30.17,SW,225,1.1,2.5,43,0.00,,,0.00,WUHU216HW,2014-03-03 18:53:00,
2014-03-03 11:58:00,53.5,30.9,30.16,SW,225,0.4,2.5,42,0.00,,,0.00,WUHU216HW,2014-03-03 18:58:00,
2014-03-03 12:03:00,54.5,31.2,30.16,SW,225,1.6,4.3,41,0.00,,,0.00,WUHU216HW,2014-03-03 19:03:00,
2014-03-03 12:08:00,54.9,30.3,30.16,ENE,68,2.2,4.3,39,0.00,,,0.00,WUHU216HW,2014-03-03 19:08:00,
2014-03-03 12:13:00,54.5,30.7,30.16,WSW,248,0.9,4.3,40,0.00,,,0.00,WUHU216HW,2014-03-03 19:13:00,
2014-03-03 12:18:00,55.4,31.5,30.16,West,270,2.7,3.8,40,0.00,,,0.00,WUHU216HW,2014-03-03 19:18:00,
2014-03-03 12:23:00,55.1,30.5,30.15,WNW,293,0.7,3.8,39,0.00,,,0.00,WUHU216HW,2014-03-03 19:23:00,
2014-03-03 12:28:00,55.6,31.0,30.15,ESE,113,3.8,3.8,39,0.00,,,0.00,WUHU216HW,2014-03-03 19:28:00,
2014-03-03 12:33:00,56.7,32.0,30.15,SSE,158,5.1,6.9,39,0.00,,,0.00,WUHU216HW,2014-03-03 19:33:00,
2014-03-03 12:38:00,57.6,31.3,30.15,SW,225,4.0,6.9,37,0.00,,,0.00,WUHU216HW,2014-03-03 19:38:00,
2014-03-03 12:43:00,57.4,31.1,30.14,SSE,158,3.1,6.9,37,0.00,,,0.00,WUHU216HW,2014-03-03 19:43:00,
2014-03-03 12:48:00,57.6,31.3,30.14,SSE,158,5.4,5.4,37,0.00,,,0.00,WUHU216HW,2014-03-03 19:48:00,
2014-03-03 12:53:00,58.0,31.7,30.14,SW,225,1.3,5.4,37,0.00,,,0.00,WUHU216HW,2014-03-03 19:53:00,
2014-03-03 12:58:00,57.1,30.9,30.14,SSW,203,1.1,6.0,37,0.00,,,0.00,WUHU216HW,2014-03-03 19:58:00,
2014-03-03 13:03:00,56.2,30.1,30.13,East,90,0.4,6.0,37,0.00,,,0.00,WUHU216HW,2014-03-03 20:03:00,
2014-03-03 13:08:00,55.4,30.1,30.13,East,90,4.7,5.6,38,0.00,,,0.00,WUHU216HW,2014-03-03 20:08:00,
2014-03-03 13:13:00,55.6,31.0,30.13,NNE,23,4.0,5.4,39,0.00,,,0.00,WUHU216HW,2014-03-03 20:13:00,
2014-03-03 13:18:00,55.4,30.8,30.13,ENE,68,2.5,7.4,39,0.00,,,0.00,WUHU216HW,2014-03-03 20:18:00,
2014-03-03 13:23:00,55.8,30.4,30.13,SW,225,0.4,7.4,38,0.00,,,0.00,WUHU216HW,2014-03-03 20:23:00,
2014-03-03 13:28:00,56.9,30.7,30.12,South,180,2.0,4.0,37,0.00,,,0.00,WUHU216HW,2014-03-03 20:28:00,
2014-03-03 13:33:00,58.0,31.0,30.12,East,90,2.2,5.4,36,0.00,,,0.00,WUHU216HW,2014-03-03 20:33:00,
2014-03-03 13:38:00,58.7,31.6,30.11,SSE,158,3.8,8.3,36,0.00,,,0.00,WUHU216HW,2014-03-03 20:38:00,
2014-03-03 13:43:00,59.9,32.7,30.11,South,180,4.3,9.2,36,0.00,,,0.00,WUHU216HW,2014-03-03 20:43:00,
2014-03-03 13:48:00,61.2,32.4,30.11,West,270,4.0,9.2,34,0.00,,,0.00,WUHU216HW,2014-03-03 20:48:00,
2014-03-03 13:53:00,61.0,31.5,30.11,NW,315,4.7,9.4,33,0.00,,,0.00,WUHU216HW,2014-03-03 20:53:00,
2014-03-03 13:58:00,60.8,31.3,30.11,WSW,248,7.6,9.4,33,0.00,,,0.00,WUHU216HW,2014-03-03 20:58:00,
2014-03-03 14:03:00,60.7,30.4,30.11,SSW,203,5.1,7.6,32,0.00,,,0.00,WUHU216HW,2014-03-03 21:03:00,
2014-03-03 14:08:00,60.8,30.6,30.11,WNW,293,2.0,7.6,32,0.00,,,0.00,WUHU216HW,2014-03-03 21:08:00,
2014-03-03 14:13:00,60.8,30.6,30.11,WNW,293,3.1,5.6,32,0.00,,,0.00,WUHU216HW,2014-03-03 21:13:00,
2014-03-03 14:18:00,60.7,30.4,30.11,South,180,0.2,4.7,32,0.00,,,0.00,WUHU216HW,2014-03-03 21:18:00,
2014-03-03 14:23:00,61.2,31.0,30.11,SSW,203,1.3,4.7,32,0.00,,,0.00,WUHU216HW,2014-03-03 21:23:00,
2014-03-03 14:28:00,62.1,31.8,30.11,SW,225,2.0,5.4,32,0.00,,,0.00,WUHU216HW,2014-03-03 21:28:00,
2014-03-03 14:33:00,62.3,31.1,30.10,West,270,5.6,5.6,31,0.00,,,0.00,WUHU216HW,2014-03-03 21:33:00,
2014-03-03 14:38:00,61.6,28.9,30.10,WSW,248,4.0,7.6,29,0.00,,,0.00,WUHU216HW,2014-03-03 21:38:00,
2014-03-03 14:43:00,61.2,29.5,30.10,WSW,248,0.4,7.6,30,0.00,,,0.00,WUHU216HW,2014-03-03 21:43:00,
2014-03-03 14:48:00,60.5,27.0,30.11,NW,315,6.3,6.3,28,0.00,,,0.00,WUHU216HW,2014-03-03 21:48:00,
2014-03-03 14:53:00,59.0,26.7,30.11,NNW,338,2.5,8.5,29,0.00,,,0.00,WUHU216HW,2014-03-03 21:53:00,
2014-03-03 14:58:00,58.5,26.3,30.10,WNW,293,3.4,8.5,29,0.00,,,0.00,WUHU216HW,2014-03-03 21:58:00,
2014-03-03 15:03:00,58.7,27.4,30.10,WNW,293,2.5,6.0,30,0.00,,,0.00,WUHU216HW,2014-03-03 22:03:00,
2014-03-03 15:08:00,59.4,28.0,30.10,SW,225,1.8,5.4,30,0.00,,,0.00,WUHU216HW,2014-03-03 22:08:00,
2014-03-03 15:13:00,59.8,27.4,30.10,NW,315,4.7,6.3,29,0.00,,,0.00,WUHU216HW,2014-03-03 22:13:00,
2014-03-03 15:18:00,59.9,27.5,30.10,NNW,338,2.5,6.3,29,0.00,,,0.00,WUHU216HW,2014-03-03 22:18:00,
2014-03-03 15:23:00,60.1,27.6,30.10,East,90,3.1,5.4,29,0.00,,,0.00,WUHU216HW,2014-03-03 22:23:00,
2014-03-03 15:28:00,60.8,28.2,30.10,ESE,113,4.0,4.0,29,0.00,,,0.00,WUHU216HW,2014-03-03 22:28:00,
2014-03-03 15:33:00,61.4,28.7,30.10,South,180,1.1,4.7,29,0.00,,,0.00,WUHU216HW,2014-03-03 22:33:00,
2014-03-03 15:38:00,61.9,29.2,30.09,ESE,113,4.0,4.7,29,0.00,,,0.00,WUHU216HW,2014-03-03 22:38:00,
2014-03-03 15:43:00,62.6,29.8,30.09,SW,225,0.0,4.0,29,0.00,,,0.00,WUHU216HW,2014-03-03 22:43:00,
2014-03-03 15:48:00,63.4,29.4,30.09,ESE,113,0.2,2.9,28,0.00,,,0.00,WUHU216HW,2014-03-03 22:48:00,
2014-03-03 15:53:00,63.4,28.5,30.09,NNE,23,1.8,2.0,27,0.00,,,0.00,WUHU216HW,2014-03-03 22:53:00,
2014-03-03 15:58:00,62.6,28.8,30.09,SSE,158,4.0,4.0,28,0.00,,,0.00,WUHU216HW,2014-03-03 22:58:00,
2014-03-03 16:03:00,62.1,27.4,30.09,East,90,2.9,5.4,27,0.00,,,0.00,WUHU216HW,2014-03-03 23:03:00,
2014-03-03 16:08:00,61.4,27.7,30.09,NNE,23,5.6,5.6,28,0.00,,,0.00,WUHU216HW,2014-03-03 23:08:00,
2014-03-03 16:13:00,60.8,27.3,30.09,SE,135,1.6,5.6,28,0.00,,,0.00,WUHU216HW,2014-03-03 23:13:00,
2014-03-03 16:18:00,61.2,28.5,30.09,SSW,203,0.4,5.6,29,0.00,,,0.00,WUHU216HW,2014-03-03 23:18:00,
2014-03-03 16:23:00,61.7,29.0,30.09,WSW,248,3.4,3.6,29,0.00,,,0.00,WUHU216HW,2014-03-03 23:23:00,
2014-03-03 16:28:00,61.7,29.0,30.09,WSW,248,3.4,3.6,29,0.00,,,0.00,WUHU216HW,2014-03-03 23:28:00,
2014-03-03 16:33:00,61.2,28.5,30.09,North,0,4.0,4.0,29,0.00,,,0.00,WUHU216HW,2014-03-03 23:33:00,
2014-03-03 16:38:00,60.8,28.2,30.09,North,0,1.3,4.0,29,0.00,,,0.00,WUHU216HW,2014-03-03 23:38:00,
2014-03-03 16:43:00,60.8,28.2,30.09,East,90,0.4,4.0,29,0.00,,,0.00,WUHU216HW,2014-03-03 23:43:00,
2014-03-03 16:48:00,60.8,28.2,30.10,NNW,338,2.0,2.5,29,0.00,,,0.00,WUHU216HW,2014-03-03 23:48:00,
2014-03-03 16:53:00,61.0,28.4,30.09,NNE,23,0.0,2.0,29,0.00,,,0.00,WUHU216HW,2014-03-03 23:53:00,
2014-03-03 16:58:00,61.6,28.9,30.09,SSW,203,0.2,2.0,29,0.00,,,0.00,WUHU216HW,2014-03-03 23:58:00,
2014-03-03 17:03:00,62.3,29.5,30.09,WNW,293,3.6,3.6,29,0.00,,,0.00,WUHU216HW,2014-03-04 00:03:00,
2014-03-03 17:08:00,62.5,28.7,30.10,West,270,1.6,3.8,28,0.00,,,0.00,WUHU216HW,2014-03-04 00:08:00,
2014-03-03 17:13:00,61.9,28.2,30.10,West,270,0.2,3.8,28,0.00,,,0.00,WUHU216HW,2014-03-04 00:13:00,
2014-03-03 17:18:00,61.0,28.4,30.10,NNW,338,3.4,3.6,29,0.00,,,0.00,WUHU216HW,2014-03-04 00:18:00,
2014-03-03 17:23:00,59.8,27.4,30.10,North,0,1.6,3.6,29,0.00,,,0.00,WUHU216HW,2014-03-04 00:23:00,
2014-03-03 17:28:00,58.9,26.6,30.10,NW,315,3.1,4.5,29,0.00,,,0.00,WUHU216HW,2014-03-04 00:28:00,
2014-03-03 17:33:00,58.0,25.8,30.10,NW,315,1.8,4.5,29,0.00,,,0.00,WUHU216HW,2014-03-04 00:33:00,
2014-03-03 17:38:00,57.4,25.3,30.10,WNW,293,1.1,3.6,29,0.00,,,0.00,WUHU216HW,2014-03-04 00:38:00,
2014-03-03 17:43:00,56.9,24.9,30.10,NNW,338,2.5,3.6,29,0.00,,,0.00,WUHU216HW,2014-03-04 00:43:00,
2014-03-03 17:48:00,56.5,25.5,30.10,North,0,3.8,4.7,30,0.00,,,0.00,WUHU216HW,2014-03-04 00:48:00,
2014-03-03 17:53:00,56.0,24.9,30.10,NNW,338,4.0,4.7,30,0.00,,,0.00,WUHU216HW,2014-03-04 00:53:00,
2014-03-03 17:58:00,55.4,24.5,30.10,NNW,338,2.5,4.5,30,0.00,,,0.00,WUHU216HW,2014-03-04 00:58:00,
2014-03-03 18:03:00,55.1,24.9,30.10,North,0,1.6,4.5,31,0.00,,,0.00,WUHU216HW,2014-03-04 01:03:00,
2014-03-03 18:08:00,54.4,24.3,30.10,NW,315,1.1,3.6,31,0.00,,,0.00,WUHU216HW,2014-03-04 01:08:00,
2014-03-03 18:13:00,54.0,24.7,30.10,NNW,338,1.8,2.2,32,0.00,,,0.00,WUHU216HW,2014-03-04 01:13:00,
2014-03-03 18:18:00,53.3,24.1,30.10,NW,315,1.1,1.8,32,0.00,,,0.00,WUHU216HW,2014-03-04 01:18:00,
2014-03-03 18:23:00,52.9,23.8,30.10,NNE,23,0.0,1.8,32,0.00,,,0.00,WUHU216HW,2014-03-04 01:23:00,
2014-03-03 18:28:00,52.4,23.9,30.10,NNW,338,0.0,1.8,33,0.00,,,0.00,WUHU216HW,2014-03-04 01:28:00,
2014-03-03 18:33:00,51.7,23.3,30.10,NNW,338,0.2,1.8,33,0.00,,,0.00,WUHU216HW,2014-03-04 01:33:00,
2014-03-03 18:38:00,50.9,23.3,30.10,NNE,23,0.2,1.3,34,0.00,,,0.00,WUHU216HW,2014-03-04 01:38:00,
2014-03-03 18:43:00,50.2,22.7,30.10,NW,315,0.4,0.9,34,0.00,,,0.00,WUHU216HW,2014-03-04 01:43:00,
2014-03-03 18:48:00,49.5,22.8,30.10,North,0,0.2,0.9,35,0.00,,,0.00,WUHU216HW,2014-03-04 01:48:00,
2014-03-03 18:53:00,48.8,22.9,30.10,West,270,0.4,1.6,36,0.00,,,0.00,WUHU216HW,2014-03-04 01:53:00,
2014-03-03 18:58:00,48.2,23.1,30.10,NW,315,0.0,1.6,37,0.00,,,0.00,WUHU216HW,2014-03-04 01:58:00,
2014-03-03 19:03:00,47.9,22.7,30.11,NW,315,2.5,2.7,37,0.00,,,0.00,WUHU216HW,2014-03-04 02:03:00,
2014-03-03 19:08:00,47.2,22.7,30.10,WNW,293,1.8,2.7,38,0.00,,,0.00,WUHU216HW,2014-03-04 02:08:00,
2014-03-03 19:13:00,46.4,21.4,30.11,NNE,23,0.2,2.7,37,0.00,,,0.00,WUHU216HW,2014-03-04 02:13:00,
2014-03-03 19:18:00,45.9,21.6,30.11,NNW,338,1.1,2.0,38,0.00,,,0.00,WUHU216HW,2014-03-04 02:18:00,
2014-03-03 19:23:00,45.0,20.8,30.11,NW,315,1.8,2.5,38,0.00,,,0.00,WUHU216HW,2014-03-04 02:23:00,
2014-03-03 19:28:00,44.3,20.8,30.11,NNW,338,0.7,2.5,39,0.00,,,0.00,WUHU216HW,2014-03-04 02:28:00,
2014-03-03 19:33:00,43.6,20.8,30.11,NW,315,1.8,2.5,40,0.00,,,0.00,WUHU216HW,2014-03-04 02:33:00,
2014-03-03 19:38:00,42.8,20.7,30.11,NNW,338,1.6,3.4,41,0.00,,,0.00,WUHU216HW,2014-03-04 02:38:00,
2014-03-03 19:43:00,42.1,20.6,30.12,NW,315,2.0,3.4,42,0.00,,,0.00,WUHU216HW,2014-03-04 02:43:00,
2014-03-03 19:48:00,41.6,20.6,30.12,NNW,338,1.6,2.5,43,0.00,,,0.00,WUHU216HW,2014-03-04 02:48:00,
2014-03-03 19:53:00,41.4,20.4,30.12,NW,315,1.1,2.2,43,0.00,,,0.00,WUHU216HW,2014-03-04 02:53:00,
2014-03-03 19:58:00,40.9,20.4,30.12,WNW,293,2.7,3.6,44,0.00,,,0.00,WUHU216HW,2014-03-04 02:58:00,
2014-03-03 20:03:00,40.7,20.8,30.12,WNW,293,2.9,3.6,45,0.00,,,0.00,WUHU216HW,2014-03-04 03:03:00,
2014-03-03 20:08:00,40.5,20.7,30.12,NW,315,1.3,2.9,45,0.00,,,0.00,WUHU216HW,2014-03-04 03:08:00,
2014-03-03 20:13:00,40.3,21.1,30.12,North,0,1.3,2.9,46,0.00,,,0.00,WUHU216HW,2014-03-04 03:13:00,
2014-03-03 20:18:00,40.0,20.7,30.12,WNW,293,2.5,2.7,46,0.00,,,0.00,WUHU216HW,2014-03-04 03:18:00,
2014-03-03 20:23:00,39.6,20.9,30.12,NW,315,0.4,3.1,47,0.00,,,0.00,WUHU216HW,2014-03-04 03:23:00,
2014-03-03 20:28:00,39.2,20.1,30.13,North,0,1.1,3.1,46,0.00,,,0.00,WUHU216HW,2014-03-04 03:28:00,
2014-03-03 20:33:00,39.2,20.6,30.12,WNW,293,2.2,3.8,47,0.00,,,0.00,WUHU216HW,2014-03-04 03:33:00,
2014-03-03 20:38:00,39.1,20.4,30.12,WNW,293,1.3,3.8,47,0.00,,,0.00,WUHU216HW,2014-03-04 03:38:00,
2014-03-03 20:43:00,39.1,21.0,30.12,NNW,338,2.5,3.6,48,0.00,,,0.00,WUHU216HW,2014-03-04 03:43:00,
2014-03-03 20:48:00,38.9,20.8,30.12,WNW,293,3.4,4.5,48,0.00,,,0.00,WUHU216HW,2014-03-04 03:48:00,
2014-03-03 20:53:00,38.7,21.2,30.12,North,0,1.8,4.5,49,0.00,,,0.00,WUHU216HW,2014-03-04 03:53:00,
2014-03-03 20:58:00,38.5,21.0,30.12,WSW,248,1.1,4.0,49,0.00,,,0.00,WUHU216HW,2014-03-04 03:58:00,
2014-03-03 21:03:00,38.2,20.6,30.12,NW,315,1.1,2.5,49,0.00,,,0.00,WUHU216HW,2014-03-04 04:03:00,
2014-03-03 21:08:00,38.0,21.0,30.12,NW,315,0.4,2.5,50,0.00,,,0.00,WUHU216HW,2014-03-04 04:08:00,
2014-03-03 21:13:00,37.8,20.9,30.12,WNW,293,0.2,1.8,50,0.00,,,0.00,WUHU216HW,2014-03-04 04:13:00,
2014-03-03 21:18:00,37.4,20.5,30.12,NW,315,2.0,2.0,50,0.00,,,0.00,WUHU216HW,2014-03-04 04:18:00,
2014-03-03 21:23:00,37.3,20.8,30.12,WNW,293,1.8,2.9,51,0.00,,,0.00,WUHU216HW,2014-03-04 04:23:00,
2014-03-03 21:28:00,37.3,20.8,30.12,WNW,293,2.7,2.9,51,0.00,,,0.00,WUHU216HW,2014-03-04 04:28:00,
2014-03-03 21:33:00,37.1,21.1,30.12,West,270,3.4,4.7,52,0.00,,,0.00,WUHU216HW,2014-03-04 04:33:00,
2014-03-03 21:38:00,37.1,21.5,30.13,WNW,293,1.8,4.7,53,0.00,,,0.00,WUHU216HW,2014-03-04 04:38:00,
2014-03-03 21:43:00,36.9,21.3,30.13,WNW,293,1.8,4.7,53,0.00,,,0.00,WUHU216HW,2014-03-04 04:43:00,
2014-03-03 21:48:00,36.9,21.3,30.13,NW,315,4.3,4.3,53,0.00,,,0.00,WUHU216HW,2014-03-04 04:48:00,
2014-03-03 21:53:00,36.7,21.2,30.13,North,0,2.0,4.3,53,0.00,,,0.00,WUHU216HW,2014-03-04 04:53:00,
2014-03-03 21:58:00,36.5,21.4,30.13,NNW,338,1.1,4.3,54,0.00,,,0.00,WUHU216HW,2014-03-04 04:58:00,
2014-03-03 22:01:00,36.4,21.2,30.13,NNW,338,1.8,2.5,54,0.00,,,0.00,WUHU216HW,2014-03-04 05:01:00,
2014-03-03 22:06:00,36.0,21.4,30.13,NW,315,2.0,3.6,55,0.00,,,0.00,WUHU216HW,2014-03-04 05:06:00,
2014-03-03 22:11:00,35.6,21.1,30.13,North,0,2.7,3.6,55,0.00,,,0.00,WUHU216HW,2014-03-04 05:11:00,
2014-03-03 22:16:00,35.3,21.2,30.13,NW,315,2.5,2.9,56,0.00,,,0.00,WUHU216HW,2014-03-04 05:16:00,
2014-03-03 22:21:00,35.1,21.0,30.12,NNW,338,1.8,2.9,56,0.00,,,0.00,WUHU216HW,2014-03-04 05:21:00,
2014-03-03 22:26:00,35.1,21.4,30.12,NW,315,1.6,2.2,57,0.00,,,0.00,WUHU216HW,2014-03-04 05:26:00,
2014-03-03 22:31:00,35.3,21.6,30.13,WNW,293,0.4,1.8,57,0.00,,,0.00,WUHU216HW,2014-03-04 05:31:00,
2014-03-03 22:36:00,35.5,22.1,30.12,NW,315,0.0,1.6,58,0.00,,,0.00,WUHU216HW,2014-03-04 05:36:00,
2014-03-03 22:41:00,35.5,22.1,30.12,NW,315,0.0,2.5,58,0.00,,,0.00,WUHU216HW,2014-03-04 05:41:00,
2014-03-03 22:46:00,35.5,22.1,30.12,West,270,0.0,2.5,58,0.00,,,0.00,WUHU216HW,2014-03-04 05:46:00,
2014-03-03 22:51:00,35.3,22.0,30.12,NW,315,1.3,2.2,58,0.00,,,0.00,WUHU216HW,2014-03-04 05:51:00,
2014-03-03 22:56:00,35.3,22.4,30.12,WNW,293,3.4,3.6,59,0.00,,,0.00,WUHU216HW,2014-03-04 05:56:00,
2014-03-03 23:00:00,35.3,22.4,30.12,NW,315,2.5,3.6,59,0.00,,,0.00,WUHU216HW,2014-03-04 06:00:00,
2014-03-03 23:05:00,35.3,22.4,30.12,NNE,23,1.8,3.4,59,0.00,,,0.00,WUHU216HW,2014-03-04 06:05:00,
2014-03-03 23:10:00,35.3,22.4,30.12,NNW,338,0.9,2.5,59,0.00,,,0.00,WUHU216HW,2014-03-04 06:10:00,
2014-03-03 23:15:00,35.1,22.2,30.11,NNW,338,0.0,1.8,59,0.00,,,0.00,WUHU216HW,2014-03-04 06:15:00,
2014-03-03 23:20:00,34.9,21.6,30.11,NW,315,0.2,1.8,58,0.00,,,0.00,WUHU216HW,2014-03-04 06:20:00,
2014-03-03 23:25:00,34.6,21.7,30.11,NNW,338,0.4,2.5,59,0.00,,,0.00,WUHU216HW,2014-03-04 06:25:00,
2014-03-03 23:30:00,34.6,21.7,30.11,NW,315,3.6,3.6,59,0.00,,,0.00,WUHU216HW,2014-03-04 06:30:00,
2014-03-03 23:35:00,34.6,22.1,30.11,NNW,338,1.3,3.6,60,0.00,,,0.00,WUHU216HW,2014-03-04 06:35:00,
2014-03-03 23:40:00,34.6,22.1,30.11,NW,315,2.2,3.6,60,0.00,,,0.00,WUHU216HW,2014-03-04 06:40:00,
2014-03-03 23:45:00,34.7,22.3,30.11,WNW,293,3.6,4.0,60,0.00,,,0.00,WUHU216HW,2014-03-04 06:45:00,
2014-03-03 23:50:00,34.9,22.9,30.11,NW,315,3.4,5.1,61,0.00,,,0.00,WUHU216HW,2014-03-04 06:50:00,
2014-03-03 23:55:00,35.3,23.2,30.12,NNE,23,2.2,5.1,61,0.00,,,0.00,WUHU216HW,2014-03-04 06:55:00,